Location: Dappach
(48.9767°N, 9.6998°E)
Time: 21:59:15
(UTC+00:00)

Cosmos 2228 Rocket - Pass Details

Date: 23 May 2024
Orbit: 616 x 648 km, 82.5° (Epoch: 14 June)

Event Time Altitude Azimuth Distance (km) Brightness Sun altitude
Exits shadow 00:05:23 47° 195° (SSW) 836 3.2 -19.6°
Maximum altitude 00:06:38 85° 279° (W) 641 3.0 -19.5°
Drops below altitude 10° 00:11:10 10° 9° (N) 2,035 6.9 -19.4°
Sets 00:13:26 0° 10° (N) 2,954 8.2 -19.3°
